Galena, Illinois, United States (61036)
Lat: 42.42N, Lon: 90.43W
Wx Zone: ILZ001
Local Info
Past Weather Observations for Today

NOTE: This archive is for the closest National Weather Service station to Galena. Information may differ from the station used for current weather conditions.

Click here for Long-term Archive

Time Weather Temperature Dewpoint Humidity Pressure Winds Precip Visibility
11:53
Overcast
Fog And Mist
55°F / 13°C 54°F / 12°C 94% 30.01 in
(1016 mb)
S 13.8 mph
(S 22 kph)
- 3SM
11:17
Overcast
Fog And Mist
54°F / 12°C 54°F / 12°C 100% 30.01 in
(1016 mb)
S 13.8 mph
(S 22 kph)
- 3SM
11:08
Overcast
Fog And Mist
54°F / 12°C 54°F / 12°C 100% 30.01 in
(1016 mb)
S 13.8 mph
(S 22 kph)
- 2 1/2SM
10:53
Overcast
Fog And Mist
54°F / 12°C 54°F / 12°C 100% 30.04 in
(1017 mb)
S 12.7 mph
(S 20 kph)
- 1 1/4SM
10:44
Obscured
Fog
54°F / 12°C 54°F / 12°C 100% 30.04 in
(1017 mb)
S 12.7 mph
(S 20 kph)
- 1/2SM
10:36
Obscured
Fog
54°F / 12°C 54°F / 12°C 100% 30.04 in
(1017 mb)
S 12.7 mph
(S 20 kph)
- 1/4SM
10:26
Obscured
Fog
54°F / 12°C 54°F / 12°C 100% 30.04 in
(1017 mb)
S 11.5 mph
(S 19 kph)
- 1/4SM
09:53
Obscured
Fog
52°F / 11°C 52°F / 11°C 100% 30.04 in
(1017 mb)
S 12.7 mph
(S 20 kph)
- 1/4SM
08:53
Obscured
Fog
52°F / 11°C 52°F / 11°C 100% 30.04 in
(1017 mb)
S 10.4 mph
(S 17 kph)
- 1/4SM
07:53
Obscured
Fog
52°F / 11°C 52°F / 11°C 100% 30.04 in
(1017 mb)
SSE 9.2 mph
(SSE 15 kph)
- M1/4SM
06:53
Obscured
Fog
52°F / 11°C 52°F / 11°C 100% 30.04 in
(1017 mb)
S 5.8 mph
(S 9 kph)
- M1/4SM
05:53
Obscured
Fog
50°F / 10°C 50°F / 10°C 100% 30.04 in
(1017 mb)
SSE 4.6 mph
(SSE 7 kph)
- 1/4SM
04:53
Obscured
Fog
52°F / 11°C 52°F / 11°C 100% 30.04 in
(1017 mb)
SSE 3.5 mph
(SSE 6 kph)
- 1/4SM
04:23
Obscured
Fog
52°F / 11°C 52°F / 11°C 100% 30.06 in
(1018 mb)
Calm - 1/4SM
03:53
Obscured
Fog
50°F / 10°C 50°F / 10°C 100% 30.04 in
(1017 mb)
Calm - 1/4SM
02:53
Obscured
Fog
50°F / 10°C 50°F / 10°C 100% 30.06 in
(1018 mb)
Calm - 1/4SM
02:44
Obscured
Fog
50°F / 10°C 50°F / 10°C 100% 30.06 in
(1018 mb)
Calm - 1/4SM
02:13
Overcast
Fog And Mist
50°F / 10°C 50°F / 10°C 100% 30.06 in
(1018 mb)
N 3.5 mph
(N 6 kph)
- 3/4SM
02:06
Overcast
Fog And Mist
50°F / 10°C 50°F / 10°C 100% 30.06 in
(1018 mb)
NNW 4.6 mph
(NNW 7 kph)
- 2SM
01:53
Overcast
Fog And Mist
50°F / 10°C 50°F / 10°C 100% 30.06 in
(1018 mb)
NNW 3.5 mph
(NNW 6 kph)
- 4SM
01:25
Overcast
Fog And Mist
50°F / 10°C 48°F / 9°C 94% 30.06 in
(1018 mb)
NW 4.6 mph
(NW 7 kph)
- 5SM
00:53
Overcast
Fog And Mist
50°F / 10°C 48°F / 9°C 94% 30.06 in
(1018 mb)
NW 5.8 mph
(NW 9 kph)
- 6SM
Time Weather Temperature Dewpoint Humidity Pressure Winds Precip Visibility


Weather for websites

WeatherForYou.com, LLC is not responsible for any damages or problems caused by this service. Current weather conditions are obtained from the closest station including government and personal stations which may have varying degrees of accuracy. Weather forecasts are derived from the NOAA NDFD. Like all things, this site belongs to Jesus Christ... He just trusts me to maintain it. If you have any questions or comments email webmaster@weatherforyou.com

Copyright © 2014, WeatherForYou.com LLC. All rights reserved.